Theta_e
320 320 319 319 319 319 319 319 319 319 320 320 320 320 320 320 320 320 320 320 320 320 320 320 320 321 321 321 322 323 321 318 316 317 316 316 330 338 348 352 348 345 349 336 313 309 308 312 313 319 319 319 317 317 322 334 337 333 319 313 310 311 314 321 321 321 325 323 326 332 338 332 328 336 336 333 327 328 329 329 331 334 334 335 337 342 343 344
320 319 319 319 319 319 319 319 319 319 319 319 319 319 319 319 320 320 320 320 320 320 320 320 320 321 321 321 322 323 320 316 315 316 316 327 344 349 352 353 352 349 344 312 307 306 307 309 313 318 317 314 318 313 319 316 337 325 318 314 310 315 317 327 328 327 325 325 331 333 338 334 331 335 336 328 326 323 323 326 328 328 331 334 339 341 342 343
319 319 319 319 319 319 319 319 319 318 318 318 318 319 319 319 320 320 320 320 319 320 320 320 320 321 322 322 322 323 318 316 317 316 321 344 344 351 353 353 357 355 314 307 309 308 308 310 313 314 315 316 314 311 315 312 331 327 320 313 315 322 325 330 332 332 334 333 331 333 336 334 334 335 341 329 325 323 321 322 326 326 327 330 337 340 341 341
319 319 319 319 319 319 318 318 318 318 318 318 318 319 319 319 319 319 319 319 319 319 319 320 320 321 322 323 323 320 317 316 314 321 327 355 351 346 350 353 355 352 320 315 314 313 313 312 311 313 314 312 309 312 309 317 323 325 320 316 319 326 326 331 334 337 338 335 333 332 333 331 335 337 334 333 322 323 324 327 326 326 327 330 336 339 340 340
319 319 319 319 319 318 318 318 318 317 318 318 318 318 318 318 318 319 319 319 319 319 320 320 321 321 322 322 322 320 315 309 317 327 338 352 351 351 350 355 351 342 318 316 314 313 312 311 312 315 314 306 309 309 307 310 323 323 319 324 327 329 325 331 336 339 338 339 334 332 328 328 338 336 333 331 322 318 324 328 330 330 331 332 333 337 339 339
319 319 319 319 318 318 317 317 317 318 318 318 317 318 318 318 318 318 318 318 319 319 320 320 321 321 322 322 320 317 314 302 320 325 354 354 353 351 351 351 351 334 322 318 312 314 315 315 314 312 304 306 305 304 307 310 324 316 326 329 331 332 329 336 338 339 339 336 332 330 333 337 333 331 336 333 330 331 330 332 332 333 334 335 335 335 336 337
318 319 319 318 318 317 317 317 317 317 317 317 317 317 317 317 317 317 317 318 318 319 320 320 321 321 322 322 318 318 313 310 319 327 355 354 352 347 348 348 343 317 318 317 320 318 317 314 316 312 309 306 306 305 308 309 311 323 321 330 331 336 333 337 337 339 338 335 333 338 341 333 332 326 334 331 336 338 333 333 333 334 335 335 333 334 333 335
318 318 318 318 317 317 317 317 317 317 317 316 316 317 316 317 317 317 318 318 318 319 320 321 321 322 322 318 317 312 314 314 322 340 352 355 349 348 341 327 318 313 314 315 318 319 320 315 313 313 305 304 305 305 309 309 313 325 325 330 331 336 337 338 337 336 337 336 338 338 334 332 335 331 336 331 333 334 330 333 333 334 334 333 333 333 333 334
318 318 318 318 317 317 317 317 317 317 316 316 316 316 316 317 317 317 318 318 318 319 320 321 322 321 322 317 316 311 311 322 329 336 348 342 338 341 325 314 315 311 311 313 315 318 319 313 312 310 301 304 309 307 309 308 309 328 327 331 332 333 334 335 335 335 336 337 336 332 329 333 334 337 333 334 334 337 332 332 332 333 332 332 332 332 332 332
318 318 318 317 317 317 317 317 317 317 316 316 315 315 315 316 316 317 318 318 318 319 320 322 322 322 318 316 315 306 318 325 328 338 339 325 329 328 326 315 313 310 310 310 313 315 315 315 312 312 309 306 308 305 308 310 309 331 330 333 333 333 334 336 331 332 335 335 335 329 327 329 332 333 323 332 335 339 335 330 331 331 330 331 332 332 332 332
318 318 317 317 317 317 317 317 317 316 316 316 315 315 315 316 316 317 318 318 319 320 321 322 322 321 317 319 308 306 322 321 320 325 330 323 323 313 314 313 312 310 310 311 311 314 315 316 316 309 307 305 305 304 305 310 336 336 334 334 333 334 335 335 333 332 332 332 333 331 326 328 330 331 325 332 335 338 339 329 329 329 329 331 331 331 332 332
317 317 317 317 317 316 316 317 316 316 316 315 315 315 315 316 317 317 318 318 319 320 322 323 324 320 318 316 310 311 323 323 324 324 326 322 314 313 313 314 312 311 311 310 312 315 314 312 309 307 299 307 300 304 305 308 326 334 334 326 329 331 327 330 332 335 334 330 334 331 326 323 324 324 330 333 337 336 338 328 328 328 329 330 331 331 331 331
317 317 317 316 316 316 316 316 316 316 316 315 315 315 316 316 317 317 318 319 320 321 323 324 323 320 318 311 317 325 328 327 322 324 325 320 317 318 317 317 316 312 313 312 310 311 311 309 309 305 306 304 303 299 308 308 315 335 332 326 323 321 319 328 335 333 331 331 332 330 311 314 322 328 331 335 334 334 341 326 327 327 328 329 330 330 331 332
317 317 316 316 316 316 316 316 316 316 315 315 315 315 315 316 316 318 319 319 321 322 324 326 322 318 317 313 325 325 325 323 320 319 318 323 318 316 317 315 314 314 313 311 310 310 311 309 309 307 309 304 302 307 307 306 310 311 328 323 315 312 313 327 331 331 326 332 331 328 310 312 320 325 331 335 333 335 331 326 326 326 328 329 329 330 330 332
316 316 316 316 316 316 316 316 316 315 315 315 314 314 315 315 317 319 320 321 322 323 325 326 322 316 315 318 329 330 355 316 315 314 318 317 317 314 313 314 313 313 312 312 312 312 312 310 307 304 300 308 309 304 299 302 304 311 306 305 312 310 312 325 333 331 323 330 334 327 311 313 319 324 333 333 333 334 333 326 326 326 328 328 329 330 330 332
316 316 316 316 316 316 316 316 315 315 315 315 313 314 315 316 318 319 321 322 323 323 322 319 320 317 314 310 320 328 317 310 311 316 316 318 316 313 314 314 313 312 312 311 313 314 311 310 305 300 302 303 302 302 297 297 297 306 298 304 309 313 313 318 325 330 332 330 332 326 314 314 317 325 330 334 331 333 334 326 326 326 328 328 329 329 330 332
316 316 316 316 316 316 316 315 315 315 315 314 314 314 315 317 319 321 322 323 324 325 322 316 322 319 309 318 326 312 312 315 317 319 318 318 315 313 314 313 311 310 311 311 312 311 308 306 305 304 304 298 297 301 296 294 296 303 312 308 312 311 312 310 321 327 329 326 315 322 315 316 321 325 330 332 333 333 331 330 328 328 327 328 329 330 330 331
316 316 316 316 316 316 316 315 315 315 314 313 313 313 312 318 319 319 322 324 322 324 321 321 318 313 309 322 312 309 316 318 317 315 315 316 315 314 313 313 311 308 308 309 310 306 306 299 302 293 295 297 298 297 294 293 298 303 308 308 310 314 314 312 312 321 324 323 318 318 318 321 323 326 327 330 336 334 331 330 329 329 328 328 329 330 331 331
316 316 316 315 315 316 316 316 315 314 314 314 313 316 317 318 318 317 319 320 316 312 308 313 311 301 299 308 318 317 315 318 316 314 313 315 315 315 314 316 312 307 302 302 300 304 302 299 298 294 292 292 295 297 299 302 308 312 312 310 311 309 309 309 318 328 324 318 316 317 313 316 322 326 330 337 338 333 331 330 328 328 329 332 330 330 332 332
316 316 316 315 315 315 315 315 314 313 313 310 308 312 316 308 308 311 319 317 316 311 311 312 315 315 314 314 313 316 316 317 311 312 314 315 314 312 310 311 309 308 301 296 299 300 301 294 291 291 293 295 298 300 301 305 310 316 316 314 312 312 313 319 322 327 325 317 315 319 321 322 320 325 328 335 334 332 331 326 327 327 328 328 328 330 331 333
316 316 316 315 314 315 315 314 313 312 311 309 308 309 305 306 302 301 309 310 314 317 316 317 318 316 314 314 313 312 309 310 313 311 313 318 311 308 304 306 303 299 297 299 298 302 300 293 292 295 297 298 299 300 302 302 315 316 315 314 312 312 309 318 320 325 327 316 313 317 320 321 320 325 327 332 333 331 331 326 326 326 327 328 329 329 331 333
316 316 315 314 314 313 314 313 312 311 311 307 311 306 308 310 312 313 312 304 312 314 317 317 319 317 321 319 315 312 309 308 309 310 313 313 308 303 302 303 299 296 298 299 298 297 294 292 296 298 300 300 300 300 300 301 313 316 314 314 312 313 318 322 323 326 325 319 312 317 316 318 323 329 333 333 333 334 331 329 327 327 325 326 328 330 331 333
317 316 315 315 314 312 312 312 311 310 309 311 310 314 314 318 316 318 316 308 306 314 313 313 312 312 314 316 313 312 307 303 303 308 309 312 306 304 303 300 299 299 300 300 294 293 292 293 298 300 300 299 299 299 299 301 310 308 314 311 309 315 313 307 317 321 322 318 313 315 314 316 322 324 327 331 334 333 331 333 328 330 326 326 328 330 329 330
316 316 315 315 314 313 312 311 310 309 309 308 307 308 314 314 313 318 313 305 304 310 313 315 315 312 308 308 312 311 306 306 306 305 317 309 303 305 304 302 299 299 297 299 297 293 294 299 302 301 300 299 298 299 302 299 297 301 315 313 313 315 315 314 315 320 322 321 322 317 311 310 316 318 322 327 332 331 331 333 330 330 332 330 331 330 331 330
316 316 316 315 314 313 310 309 308 311 312 311 309 313 316 315 316 318 312 304 305 307 317 315 313 311 309 314 313 308 308 308 310 311 313 311 308 305 304 308 304 297 299 301 299 296 296 301 302 300 300 301 301 300 303 299 297 297 301 313 318 318 317 318 319 315 307 307 316 314 301 303 312 316 319 322 328 326 331 328 327 329 329 330 331 330 330 332
315 315 315 315 314 311 309 310 313 310 310 308 312 313 313 316 317 320 309 300 296 304 308 302 312 305 316 308 311 309 309 303 309 312 315 311 315 307 307 299 304 297 300 300 297 296 297 301 303 301 301 301 301 302 303 305 298 297 297 308 320 320 319 318 316 311 301 301 311 317 301 298 310 312 315 319 322 323 329 327 327 328 329 329 330 330 329 331
315 314 314 314 313 311 304 307 310 311 307 310 313 315 317 316 317 315 307 299 294 307 300 307 307 309 313 310 309 309 293 298 309 311 312 319 308 313 302 298 301 303 306 305 295 291 301 300 299 300 301 300 297 296 301 302 296 294 302 322 322 320 318 317 315 311 305 315 317 318 310 301 301 308 316 318 320 321 323 325 327 329 328 328 330 330 329 331
315 314 312 312 311 309 305 307 308 309 309 311 315 318 319 318 316 313 304 292 289 307 302 303 308 314 314 310 309 302 303 307 302 306 311 311 312 307 303 299 300 300 303 299 290 297 301 299 300 299 298 297 297 300 302 303 298 298 322 324 321 320 319 318 314 311 311 309 304 309 316 304 302 308 317 318 316 318 320 322 324 327 329 329 330 331 330 332
314 313 312 311 310 309 310 306 308 309 314 315 317 319 322 318 311 303 295 289 303 302 313 304 314 310 308 308 306 305 307 309 301 306 311 311 312 306 299 301 302 301 303 302 294 297 302 303 302 302 298 295 298 301 302 303 298 301 321 324 323 322 322 319 313 311 311 302 299 306 313 302 301 308 314 319 315 315 318 321 323 326 328 328 329 332 330 332
313 312 311 310 308 308 306 307 306 313 316 317 317 318 319 311 305 299 295 290 305 294 306 306 304 302 305 301 302 305 303 305 307 311 310 306 308 309 306 308 304 301 298 301 300 299 302 314 309 307 297 299 301 300 302 302 302 304 304 305 313 317 317 314 311 309 303 295 297 310 313 308 297 306 313 313 314 316 317 319 323 325 328 330 331 332 330 331
312 311 310 310 303 312 311 304 308 316 317 315 315 317 311 305 300 292 290 297 306 302 306 303 301 306 301 300 296 303 304 304 304 307 303 308 304 305 305 301 301 296 294 296 297 300 302 303 304 303 307 307 303 301 302 303 302 301 299 299 299 298 305 304 303 300 294 289 296 311 313 311 298 302 312 319 322 321 318 317 320 323 326 329 331 333 332 332
309 309 310 307 309 313 305 302 309 312 312 315 318 312 304 296 298 290 294 311 300 299 299 298 303 302 302 303 300 300 300 303 304 304 300 299 299 297 297 295 297 293 290 292 293 297 297 299 300 303 314 303 302 297 296 299 299 297 298 297 290 289 293 290 293 291 291 288 300 311 313 307 305 308 314 319 321 322 322 321 321 323 325 328 330 333 332 331
308 308 309 309 311 307 310 312 312 312 314 317 313 306 299 294 290 296 298 303 297 301 299 304 302 302 301 300 298 303 304 298 302 303 303 302 299 299 302 300 299 296 292 294 294 293 294 299 301 301 304 307 298 294 291 292 294 296 296 294 290 286 285 283 286 291 292 301 309 310 314 304 307 311 316 318 322 324 324 324 325 325 326 327 328 331 332 330
308 308 307 311 310 311 314 317 317 316 316 315 306 303 300 292 293 318 305 303 303 305 305 303 303 302 301 295 297 302 296 300 302 301 302 300 299 296 298 301 302 300 297 296 292 294 288 290 296 299 294 303 300 295 294 293 295 295 297 297 293 289 287 284 286 286 289 294 304 311 304 298 303 306 320 320 322 324 326 326 327 327 328 328 329 331 333 329
308 308 309 313 311 312 312 314 315 318 314 308 302 298 294 291 297 297 299 299 301 305 303 303 302 301 297 299 302 302 300 297 302 301 299 297 295 298 299 298 303 303 300 290 298 296 296 291 299 303 303 302 301 301 300 297 294 293 300 298 294 292 294 289 289 290 297 299 300 301 299 304 305 317 324 325 326 325 328 327 328 327 329 329 328 330 332 330
309 312 317 316 314 318 314 314 314 315 310 303 298 295 293 298 296 302 300 309 305 301 302 299 298 297 294 294 300 302 303 299 301 299 300 298 300 301 304 304 302 304 295 293 296 293 294 291 300 302 304 301 301 304 304 300 292 294 296 292 294 299 298 294 298 299 301 296 293 302 303 308 313 314 318 322 324 324 325 326 327 327 329 329 328 330 332 330
310 314 314 318 322 322 317 317 318 314 308 302 296 293 297 302 305 305 312 306 306 306 299 293 293 297 294 293 296 299 301 301 300 297 296 301 298 303 303 303 306 304 301 297 295 299 291 293 299 301 301 303 304 303 303 305 301 295 293 293 298 301 300 293 287 290 289 284 288 302 299 301 302 300 316 318 320 322 325 325 327 327 328 328 329 330 331 331
308 312 317 320 322 322 320 319 317 311 306 300 296 310 310 302 309 307 308 307 307 304 299 295 294 300 296 294 296 300 301 297 298 299 298 300 296 306 302 302 304 304 304 300 294 299 294 288 293 301 304 305 305 307 305 307 308 302 298 301 297 289 289 292 293 285 285 286 286 298 303 302 302 303 312 314 318 320 322 324 325 327 327 327 329 330 332 333
309 313 310 320 320 324 321 320 313 309 303 297 296 299 307 306 308 308 309 308 308 305 298 297 295 299 298 295 297 299 301 295 299 296 296 300 296 304 303 304 303 305 304 301 297 298 297 290 290 299 303 303 302 303 294 299 306 309 310 306 305 295 295 294 293 291 291 284 289 290 299 296 307 309 318 317 319 321 323 323 324 326 327 328 330 331 332 332
310 304 301 315 323 322 320 315 310 305 300 296 296 300 305 304 307 309 309 308 304 301 299 299 302 297 298 298 299 295 300 300 297 297 299 300 299 305 303 305 303 304 306 307 302 301 296 298 290 296 303 302 295 298 298 300 298 300 302 301 303 301 303 299 300 295 292 287 286 288 291 298 307 319 320 320 322 324 324 324 325 326 327 328 330 332 333 333
312 306 304 317 318 318 317 313 304 301 299 299 302 302 304 303 306 307 308 309 305 306 301 301 299 296 297 298 296 300 298 298 299 297 299 303 298 295 305 306 306 302 304 304 302 301 297 295 294 294 296 294 296 303 306 305 303 301 300 300 301 300 296 291 290 303 302 295 289 290 287 297 309 326 322 321 323 325 326 325 326 327 328 330 332 333 332 333
310 304 307 318 317 319 311 303 302 302 299 298 297 302 303 315 306 306 307 308 305 302 306 303 302 301 299 298 298 298 297 296 297 297 301 296 302 299 304 305 305 304 300 298 300 306 301 300 295 293 296 298 301 305 310 309 308 307 305 303 306 305 300 293 286 293 300 300 304 299 295 299 315 323 323 324 325 327 327 329 328 329 328 330 332 335 337 333
302 300 312 314 316 316 305 300 305 305 298 298 304 303 304 304 303 304 304 306 304 305 304 302 302 301 300 301 301 299 300 297 299 297 300 302 303 303 305 305 305 305 303 301 303 301 331 296 293 296 299 301 303 306 309 310 308 305 305 306 306 303 305 298 297 300 297 300 298 296 296 300 311 322 325 326 327 327 326 328 328 328 329 331 332 332 333 335
303 304 307 315 317 315 305 297 297 298 299 303 303 302 305 304 304 303 304 305 303 302 301 301 302 302 300 303 300 299 301 294 300 299 299 302 301 306 304 304 306 303 302 301 298 303 296 299 295 290 287 290 294 299 300 305 306 303 302 304 308 309 307 306 304 303 295 301 303 294 292 300 312 324 323 325 326 326 327 329 330 328 328 330 331 333 335 337
302 307 307 311 318 313 303 302 301 299 301 302 302 302 303 304 307 307 306 305 307 303 304 300 302 303 301 302 301 301 302 298 296 299 301 303 303 307 306 304 306 304 309 309 327 306 301 302 294 287 287 284 284 285 288 294 297 302 308 308 309 309 307 303 296 298 289 298 302 296 297 303 312 317 320 324 324 323 325 327 329 330 330 330 331 331 334 335
302 297 305 307 309 311 308 310 308 305 301 302 300 301 303 301 305 308 309 308 309 307 303 303 304 304 302 301 299 299 300 301 298 298 299 298 300 305 306 308 308 307 320 329 317 311 304 305 298 291 288 287 290 293 298 307 302 298 303 306 306 310 310 308 301 295 290 295 299 301 302 302 306 311 314 320 323 322 322 324 325 327 329 330 331 332 332 333
306 301 303 299 306 306 305 306 305 305 301 305 297 302 300 301 303 305 309 302 305 305 306 305 304 302 301 301 299 299 301 301 304 302 302 301 304 304 309 309 309 316 333 325 318 307 302 297 303 299 298 297 299 301 306 308 303 305 305 304 308 308 308 306 299 297 301 294 290 302 306 304 305 310 315 321 322 322 323 324 326 327 329 330 331 332 334 332
299 305 308 310 301 294 301 302 307 306 307 307 303 306 302 301 301 299 305 306 306 306 301 302 304 303 302 300 300 298 300 301 301 300 305 303 303 303 303 308 308 323 321 307 315 306 302 298 303 304 302 303 305 305 308 308 307 306 306 306 306 309 308 305 305 306 304 295 292 301 307 306 308 314 319 320 321 322 323 325 328 329 330 331 330 331 331 331
307 309 310 314 303 305 305 306 309 307 306 305 305 308 304 302 300 302 303 302 304 303 304 299 301 301 301 301 301 298 301 296 296 303 302 301 302 302 298 301 305 310 306 305 305 308 302 299 304 304 302 305 304 305 308 305 307 307 307 306 306 308 307 308 308 309 308 304 306 305 307 309 314 317 319 321 324 325 326 327 327 327 328 329 329 329 330 330
305 306 305 312 309 305 306 307 307 306 302 306 301 303 305 305 304 305 306 304 301 302 305 302 301 302 301 302 305 301 301 301 300 300 304 303 298 303 301 302 300 303 304 305 306 304 301 300 312 304 298 299 303 307 307 306 305 302 304 306 308 307 307 308 310 312 313 311 312 311 310 308 316 320 321 323 323 324 323 322 323 325 326 328 329 328 329 329
309 313 313 306 302 303 307 305 302 301 298 301 300 303 305 305 304 306 305 306 303 304 305 302 303 303 304 302 303 302 304 306 304 302 303 302 297 305 299 302 303 301 302 303 303 307 304 300 306 302 295 295 302 303 303 304 304 303 302 305 305 305 303 307 305 311 309 308 309 308 304 304 312 319 321 321 321 321 321 321 322 323 326 327 327 328 329 330
311 314 315 309 299 309 300 302 301 299 295 299 305 304 304 305 308 309 304 306 306 306 308 307 306 304 305 304 300 301 305 305 305 304 303 303 302 302 303 303 301 300 300 300 305 301 301 300 299 297 292 292 299 303 302 303 299 296 298 302 305 307 309 311 312 314 315 314 306 302 302 310 315 320 316 318 320 322 322 322 322 323 326 328 327 327 329 330
Wind_Speed
13 13 13 13 13 14 14 14 15 15 15 15 15 15 16 15 15 15 15 15 15 15 14 15 15 15 15 15 15 16 14 8 9 2 1 10 7 8 7 7 7 13 9 1 1 0 3 2 5 4 3 1 3 3 4 7 3 2 2 3 1 3 4 5 6 6 2 2 3 2 2 0 4 5 3 1 5 8 12 9 9 11 9 10 15 19 18 16
14 14 13 14 13 13 14 15 15 15 15 15 15 15 16 16 16 16 16 15 14 15 14 14 15 15 14 14 14 15 12 5 5 5 14 5 9 9 8 5 7 12 7 0 4 4 1 2 3 3 4 2 3 4 4 3 7 4 1 2 6 4 5 5 4 6 4 1 2 3 1 1 4 1 2 3 8 10 9 11 13 13 13 14 19 20 18 17
15 15 15 14 15 15 14 14 15 15 15 16 16 16 16 16 16 15 15 15 14 14 14 14 14 14 14 13 14 14 9 4 3 5 9 10 14 8 7 6 6 11 7 3 3 4 5 3 3 2 3 5 4 6 5 3 8 4 6 5 5 6 2 4 4 5 3 4 3 2 2 0 3 2 1 3 3 14 15 12 11 16 17 17 20 20 18 17
15 16 16 15 15 14 14 15 15 16 16 16 16 16 16 16 16 16 15 15 14 14 14 14 14 14 14 14 13 9 3 3 0 2 2 5 9 13 6 6 7 8 1 1 1 1 2 4 5 3 3 7 4 6 4 4 5 3 3 6 6 5 4 3 4 3 3 5 3 4 0 1 3 2 1 2 5 3 10 18 20 18 20 18 21 19 17 17
16 16 16 16 15 15 16 16 16 16 16 16 16 16 16 16 16 16 15 15 15 15 15 14 14 14 14 12 12 4 2 1 1 2 1 4 8 9 7 5 6 3 4 0 1 3 4 5 3 2 3 4 2 1 3 6 8 5 7 4 6 6 2 5 5 4 4 4 4 3 4 3 2 2 2 4 2 5 8 10 15 20 19 21 21 21 17 17
17 17 17 16 16 16 16 17 17 17 16 16 16 16 16 16 16 15 15 16 15 14 14 14 14 14 14 13 7 2 0 2 2 2 3 4 7 7 7 6 6 3 3 1 1 2 2 3 2 1 2 0 2 2 4 3 3 3 2 4 6 5 4 4 5 3 3 3 2 2 3 1 1 2 2 2 2 1 2 13 16 17 17 17 17 18 20 18
17 17 16 17 17 17 17 18 17 17 17 17 17 17 17 16 16 16 16 15 15 14 13 13 13 13 13 13 1 1 1 4 3 3 6 5 7 9 8 7 6 4 3 2 1 1 0 3 1 4 2 3 7 5 8 6 6 6 2 5 6 6 8 8 6 6 5 7 3 3 1 1 0 5 0 1 1 2 7 13 15 16 16 16 15 13 16 18
17 17 17 17 18 18 18 18 17 17 17 17 17 17 17 17 16 15 15 15 15 14 13 12 11 11 10 4 0 1 1 5 8 2 8 6 6 8 8 3 4 4 4 4 3 2 1 3 5 2 3 4 5 4 6 8 2 8 5 5 4 4 4 5 4 4 4 3 3 4 2 2 1 2 4 3 7 12 9 13 15 16 16 14 13 15 14 15
17 18 18 18 18 19 18 18 18 17 17 18 18 18 18 17 16 15 15 14 14 13 12 11 10 8 6 1 1 2 2 6 4 7 8 7 5 5 6 3 3 5 3 2 4 3 1 3 5 4 2 4 2 5 6 5 3 1 10 8 6 4 6 4 5 3 3 2 1 2 1 2 4 6 2 1 4 6 6 15 17 16 16 14 14 15 14 12
17 17 18 18 18 19 18 19 18 18 18 19 18 19 19 18 17 16 15 14 14 13 12 10 9 7 3 1 0 2 3 4 4 8 9 8 7 5 4 2 6 3 2 4 2 3 4 7 2 6 5 4 2 4 8 5 5 4 9 7 9 4 5 4 2 1 3 3 2 3 2 1 6 1 3 5 4 6 1 16 16 16 15 15 14 13 12 12
17 17 18 18 19 18 19 19 19 19 19 18 18 19 19 18 17 15 14 15 14 13 10 9 6 5 1 1 1 1 3 7 3 5 9 8 9 6 7 5 6 4 4 3 5 4 4 6 8 5 2 2 5 5 6 3 8 10 13 12 7 6 5 2 2 2 1 1 2 5 2 0 3 1 3 3 6 7 3 15 16 14 13 14 14 11 9 9
18 18 18 19 19 19 19 19 19 19 19 20 20 19 18 18 17 16 15 14 13 11 8 6 5 2 1 1 2 6 4 2 6 5 6 8 6 8 6 8 7 7 7 4 4 4 6 8 3 1 2 1 3 4 4 5 4 9 14 9 4 2 2 2 2 2 3 1 0 3 1 3 0 5 6 3 8 10 6 15 14 13 13 12 12 9 6 6
19 19 19 19 20 20 20 20 20 20 20 21 19 18 19 18 18 16 14 12 8 8 8 6 3 2 1 2 8 10 5 3 6 7 6 7 4 4 5 6 11 9 8 5 4 3 5 4 2 5 2 1 1 0 3 3 6 9 5 10 4 1 1 2 1 3 5 1 4 3 2 5 9 8 3 6 8 10 4 13 14 12 10 10 9 8 5 9
19 19 20 20 20 21 21 20 20 20 20 18 17 18 19 19 17 16 14 12 10 9 8 4 1 2 0 5 5 4 5 5 3 4 4 4 2 3 4 5 6 8 5 5 6 5 5 3 2 4 1 1 2 3 6 3 5 6 6 2 2 2 1 2 1 2 4 2 6 2 4 5 6 6 2 5 6 6 3 13 11 9 9 10 9 7 9 10
20 20 21 21 22 21 21 20 19 19 19 21 19 19 20 19 16 15 13 9 8 8 6 2 2 0 1 6 6 8 10 1 1 5 4 3 3 2 4 5 5 6 5 5 3 2 2 3 4 2 3 1 1 3 5 3 2 6 4 0 2 4 2 2 2 2 3 3 4 4 3 7 4 3 3 8 3 6 6 11 10 7 10 9 8 10 9 9
20 20 20 21 22 21 21 20 19 18 22 22 21 22 21 15 14 12 9 7 5 3 1 1 2 1 1 6 1 7 2 1 5 9 6 4 3 5 7 8 4 5 4 3 5 1 2 1 0 3 3 4 1 0 4 6 6 4 2 2 1 1 2 1 3 3 4 2 3 3 5 1 2 4 5 6 4 8 6 7 8 5 11 10 9 9 8 9
19 19 18 20 21 22 23 20 19 19 21 23 25 24 16 11 10 10 5 5 4 3 3 1 2 2 1 2 4 2 3 5 3 1 3 4 6 3 2 1 2 4 4 4 3 2 2 0 1 1 0 3 2 1 1 3 5 1 2 2 3 4 3 1 3 2 2 4 2 4 1 2 2 8 9 5 2 5 3 4 5 1 8 9 9 9 9 9
17 18 18 19 21 22 22 20 20 20 21 22 23 20 16 11 7 1 1 3 1 2 3 3 2 2 5 3 1 4 3 3 3 5 6 4 6 1 0 0 1 2 1 1 1 1 0 1 0 4 2 1 1 1 4 4 7 4 1 3 1 2 0 4 3 1 3 3 3 1 3 2 6 8 6 5 2 2 2 4 3 6 2 7 10 9 8 10
19 18 19 19 19 21 22 21 20 20 23 25 20 18 2 9 5 1 2 3 1 1 1 0 1 1 3 5 6 6 4 8 3 3 2 2 2 2 1 1 1 1 2 2 3 3 1 1 4 1 4 3 5 7 9 5 5 8 7 3 4 6 1 3 2 1 4 3 4 3 2 4 9 9 9 2 1 1 5 5 5 7 8 8 9 7 2 10
21 20 19 19 19 20 22 21 17 16 21 17 11 5 1 4 3 2 1 0 3 5 8 6 6 4 9 11 5 2 2 1 2 3 2 3 1 1 2 0 1 1 1 2 1 3 3 3 4 7 8 8 7 8 11 4 2 6 4 5 5 5 1 1 0 2 2 4 3 2 3 2 3 4 5 2 3 6 6 5 4 7 4 7 9 2 13 4
19 19 19 19 19 21 20 18 16 13 16 7 6 2 3 2 3 4 8 6 6 7 8 10 11 10 9 4 2 3 3 3 1 3 5 2 2 5 2 1 1 2 4 5 3 1 5 2 8 10 12 11 11 8 7 5 3 7 6 9 4 2 4 2 2 3 2 3 1 2 3 2 3 3 3 1 3 3 2 5 4 5 7 7 7 8 8 10
19 18 20 19 20 19 22 19 16 13 10 3 1 2 2 3 3 3 1 7 11 8 8 13 7 7 8 13 9 4 4 1 2 4 1 5 1 3 2 3 2 5 3 0 1 0 3 8 11 13 13 9 8 8 7 7 6 6 5 6 6 1 2 2 1 3 4 4 2 0 3 0 2 3 2 0 1 1 2 3 5 6 8 6 6 7 5 3
18 19 20 20 20 21 20 20 17 13 1 1 3 3 4 5 4 5 0 2 6 8 6 6 5 7 8 10 2 5 1 2 4 2 4 3 2 4 3 1 3 3 4 1 5 2 3 7 15 15 8 7 9 7 5 7 11 7 6 7 7 8 6 1 2 1 4 1 5 3 3 1 2 2 2 4 2 1 3 3 5 6 9 8 8 8 8 10
18 18 20 20 21 21 22 20 17 0 1 3 3 5 7 5 6 5 3 2 4 6 6 8 4 5 5 4 3 2 2 2 4 5 4 4 6 3 1 4 4 3 7 6 8 9 10 12 11 8 8 6 11 10 4 4 1 3 14 6 6 9 5 3 6 3 0 6 3 6 4 2 3 3 2 4 2 3 3 2 1 1 4 5 5 6 9 10
19 19 19 21 21 22 23 20 2 2 6 3 4 6 6 6 3 4 3 3 2 5 3 3 4 3 2 2 1 2 2 1 2 5 5 5 1 1 1 2 1 5 4 2 3 8 9 13 4 6 6 6 6 1 1 5 0 6 3 10 13 13 8 8 10 8 3 1 3 6 2 3 5 8 8 5 2 3 3 5 6 5 5 5 5 6 9 9
20 19 18 18 21 23 23 2 2 7 7 4 5 6 7 4 2 1 4 2 4 5 1 4 1 2 1 1 1 2 4 2 3 4 5 5 4 2 0 2 1 4 4 6 4 3 6 5 1 3 3 5 5 0 2 1 1 1 6 5 11 12 10 13 11 6 3 4 7 3 4 3 1 7 10 8 6 7 2 6 8 7 7 7 7 6 9 11
19 18 18 16 17 19 7 0 4 6 3 2 4 10 9 8 5 4 3 2 2 3 3 1 2 0 1 1 3 2 2 3 2 3 2 1 2 1 1 5 3 2 2 1 4 4 2 5 5 3 4 3 2 3 2 1 3 2 2 13 14 14 13 13 13 4 2 1 4 1 1 1 2 6 7 10 10 9 7 7 7 7 8 8 7 7 9 14
18 18 17 16 15 6 4 3 7 2 4 5 7 10 10 8 6 3 2 1 1 0 2 2 1 1 0 3 5 3 4 3 1 3 3 4 4 2 1 3 2 6 5 4 1 8 1 4 1 3 3 1 2 2 5 2 2 2 6 14 14 18 16 13 10 5 3 7 1 3 3 0 3 5 1 11 9 9 11 11 9 9 9 8 7 6 10 14
20 17 16 14 15 9 5 2 0 4 4 4 8 9 8 7 2 3 2 1 2 1 2 2 4 0 1 2 1 4 1 1 4 2 1 1 1 4 1 5 3 3 4 2 4 4 3 1 2 1 1 1 4 3 4 3 2 1 8 8 11 8 9 11 6 7 3 2 4 7 6 3 4 1 3 2 7 11 13 14 13 12 11 9 8 6 9 11
21 17 15 12 8 3 1 0 6 9 5 7 8 9 7 2 3 2 2 2 2 3 1 1 1 4 3 4 2 3 3 2 3 0 1 3 1 1 2 1 1 2 3 2 3 7 6 2 3 1 3 4 1 2 4 2 2 2 6 5 5 6 6 2 2 3 3 1 5 10 11 5 2 4 7 9 9 15 12 8 9 9 9 9 7 7 8 12
23 17 13 5 1 1 1 4 9 6 6 5 8 6 2 3 1 2 0 2 1 1 1 1 4 2 5 5 3 2 1 3 3 4 1 2 2 1 2 2 4 3 3 4 7 6 5 4 0 2 5 0 2 2 3 1 3 4 1 1 1 4 3 3 1 3 1 4 5 5 13 5 3 3 4 10 5 8 11 13 14 12 12 11 8 7 7 11
24 21 11 4 4 3 5 5 2 2 5 7 5 4 3 1 3 1 3 1 1 1 3 3 5 3 7 7 6 3 5 2 2 4 6 3 3 3 4 5 2 0 3 2 4 4 3 7 3 3 3 7 0 2 7 6 7 5 4 6 3 2 1 2 0 3 3 2 2 2 7 2 5 8 6 11 12 5 7 10 13 15 14 12 10 9 8 9
25 23 18 7 8 3 7 8 6 7 7 6 2 2 2 3 1 4 3 3 1 5 3 3 5 6 4 6 6 10 4 4 4 5 6 2 3 6 2 5 4 4 2 2 3 4 6 4 1 2 3 1 5 2 3 3 3 6 1 2 2 1 1 1 2 1 2 4 3 5 7 2 4 6 4 8 11 12 9 10 9 12 13 14 13 10 9 8
26 21 9 6 11 10 4 1 2 3 4 3 2 3 3 1 3 4 3 3 6 2 3 3 5 5 3 5 3 6 3 5 6 4 5 2 3 3 3 3 5 1 2 1 4 0 6 7 6 2 1 1 1 3 5 4 1 3 5 2 5 5 2 2 2 3 6 5 3 2 3 4 2 3 2 3 4 4 5 6 7 10 11 12 13 10 11 9
27 16 5 2 3 9 13 7 2 3 2 2 5 3 2 4 2 1 3 2 3 1 2 3 1 1 3 1 1 2 4 1 3 3 3 1 1 0 1 2 4 6 2 3 1 1 1 2 4 4 5 4 3 4 4 3 1 1 2 5 4 5 6 4 6 4 2 1 1 0 3 1 3 1 1 2 8 8 2 5 6 7 7 8 9 9 10 11
15 6 3 2 4 5 8 6 4 1 1 4 3 1 4 4 1 1 2 1 3 6 6 8 4 1 2 3 2 1 5 1 1 4 0 3 1 2 2 2 3 0 2 2 1 0 3 3 4 6 7 0 1 1 1 3 1 3 3 1 3 4 4 1 1 1 4 3 4 3 2 2 3 3 4 4 7 6 5 2 7 8 8 9 10 9 9 9
10 9 2 3 4 4 7 8 7 5 3 5 4 3 5 3 5 2 4 4 7 11 2 4 3 0 4 3 1 1 1 2 1 2 1 1 1 1 1 2 2 2 2 4 3 1 3 4 3 8 8 4 4 2 4 7 2 2 1 6 5 2 4 3 2 2 2 4 4 2 4 1 1 2 3 4 5 4 5 5 1 6 8 10 11 10 10 10
9 5 6 5 5 7 9 9 9 2 2 4 1 4 1 3 1 2 6 8 8 5 3 1 3 4 0 3 3 1 1 4 1 2 1 1 1 2 2 1 2 3 3 1 4 1 3 2 2 2 4 5 6 9 10 7 6 8 1 3 6 2 4 3 2 1 1 2 2 2 0 1 3 2 5 6 4 4 4 3 2 4 7 9 8 6 4 4
3 2 5 3 3 10 8 8 4 4 3 3 2 1 4 5 4 7 7 6 5 8 8 1 1 2 2 0 1 5 1 0 2 2 3 1 1 1 0 0 2 7 6 7 6 2 5 2 4 5 7 4 5 7 4 8 7 3 6 8 1 1 2 1 3 3 2 3 1 1 2 1 0 2 4 5 6 4 4 3 1 1 2 6 7 7 8 8
4 3 3 2 7 8 11 7 3 2 3 1 3 3 2 5 8 13 7 5 4 4 2 0 0 1 2 3 1 2 3 1 3 2 2 1 1 0 2 3 3 4 8 9 4 2 2 2 1 7 6 5 5 2 1 2 5 8 9 4 6 2 4 1 2 2 0 2 2 2 2 2 2 2 4 4 4 4 4 4 5 5 3 4 3 6 6 7
3 1 5 1 5 9 8 3 1 1 1 3 1 2 4 4 4 9 11 16 6 5 3 1 1 0 2 2 7 2 1 0 0 2 1 0 1 1 2 0 1 3 3 8 8 2 1 2 0 4 7 3 2 2 1 0 3 4 5 2 3 4 6 5 5 3 2 2 2 3 3 2 4 0 4 3 3 3 4 4 5 5 5 3 3 3 1 5
3 2 1 1 4 3 8 2 2 2 1 2 3 2 2 4 6 11 8 8 6 3 2 1 2 2 3 2 2 1 2 2 2 2 0 2 3 5 3 5 5 4 5 2 3 1 3 2 4 2 1 3 3 2 1 4 8 7 6 2 1 2 2 3 1 5 1 1 2 0 2 2 4 2 2 0 1 3 3 3 4 5 3 3 4 3 4 2
3 5 8 9 9 2 2 1 2 1 2 4 3 6 6 6 6 7 8 7 5 4 1 1 2 0 2 1 1 0 0 1 0 1 2 1 1 3 6 6 7 8 7 1 1 1 5 3 4 3 6 6 6 2 4 6 5 5 4 3 2 1 1 5 4 3 2 4 5 5 4 1 2 2 1 1 2 2 2 3 3 3 3 4 4 5 4 4
3 5 8 4 3 3 1 3 3 3 3 4 4 8 5 5 7 8 8 8 4 2 0 1 2 3 3 2 1 0 1 1 2 2 1 2 4 7 7 8 8 2 3 4 4 2 2 2 4 1 4 8 9 9 6 3 5 3 1 3 1 1 3 2 1 2 2 2 2 4 0 2 3 3 4 3 3 5 5 5 4 5 4 3 4 5 6 5
5 4 6 8 3 5 6 5 3 3 3 4 6 8 6 5 4 7 9 9 4 3 0 1 1 0 2 1 1 2 1 2 1 3 1 0 1 1 6 6 7 3 1 5 6 4 6 3 3 1 1 3 4 4 5 7 4 2 0 1 2 2 4 1 2 1 1 2 3 3 1 6 5 3 3 2 3 5 5 5 6 4 4 5 3 4 6 6
3 3 5 3 3 1 3 1 1 1 4 4 6 6 4 6 6 6 7 11 10 5 3 3 2 2 0 2 4 3 3 2 3 1 3 4 3 1 5 10 6 2 6 8 5 4 2 1 3 4 4 5 6 6 6 1 2 2 4 3 3 1 2 1 3 3 3 3 3 3 4 3 4 3 3 4 6 6 6 7 7 7 8 7 5 4 4 4
2 0 3 5 6 4 2 3 4 5 4 5 4 3 5 5 5 6 5 3 5 3 1 1 1 2 1 4 2 2 0 2 1 3 2 2 2 1 10 10 7 9 10 5 5 5 3 3 0 5 5 6 7 6 4 5 2 2 2 3 3 4 3 2 1 1 2 5 1 2 4 3 4 2 2 5 5 4 5 5 5 5 6 5 5 4 7 4
1 3 2 1 1 3 6 6 8 9 10 6 4 4 8 10 6 4 4 4 5 0 1 4 1 1 2 4 2 1 1 2 1 0 0 3 0 1 1 1 4 5 6 3 3 5 6 4 4 3 3 6 6 6 4 3 3 3 3 3 4 4 3 1 1 3 2 2 3 4 5 4 1 1 2 4 4 4 5 6 6 3 4 6 8 9 8 8
2 2 2 7 2 2 2 9 11 8 9 5 3 5 6 7 10 7 3 4 5 3 1 1 2 5 5 3 3 2 1 1 1 1 1 1 1 0 2 2 4 2 3 1 1 1 5 0 4 3 1 1 3 4 3 5 2 2 3 5 6 3 3 3 3 2 2 2 2 4 6 5 0 1 2 4 5 7 5 5 6 8 7 7 8 8 8 8
3 2 4 5 2 4 5 4 5 6 7 5 3 5 3 5 8 8 4 1 2 5 1 3 4 6 5 2 1 0 3 3 3 2 2 2 6 2 1 1 1 2 1 1 1 2 5 2 6 2 1 1 4 4 4 6 4 4 5 4 4 4 3 4 1 0 2 1 2 2 2 1 1 1 3 3 5 5 7 9 7 5 5 6 8 8 7 7
2 2 2 4 6 4 2 2 4 5 5 4 1 6 6 7 8 10 11 5 5 2 2 8 8 5 2 5 2 4 2 7 6 6 7 7 5 0 1 1 1 1 3 2 2 0 2 1 1 2 1 2 2 5 7 5 4 4 3 4 5 4 1 1 2 3 2 0 2 1 2 2 2 1 3 4 6 7 8 5 5 4 4 4 6 7 9 9
3 2 3 1 2 3 4 3 3 4 4 3 2 8 7 13 11 13 12 8 2 4 1 6 5 4 2 2 5 7 3 7 4 6 5 6 6 4 2 3 4 2 0 0 1 3 3 5 3 2 1 2 5 5 5 1 1 2 6 4 1 1 5 5 2 0 1 1 1 0 2 2 3 0 3 4 4 4 6 3 0 1 1 2 4 6 6 6
Wind_Direction
356 354 353 349 346 343 341 337 334 333 332 331 329 327 327 328 329 329 329 331 332 331 330 329 327 327 326 326 328 328 331 333 328 332 233 240 184 202 187 234 179 188 192 173 316 53 282 205 231 232 244 136 236 228 201 164 120 136 201 120 266 192 158 206 174 181 188 127 258 285 228 165 314 339 306 4 142 164 164 132 133 106 124 125 130 136 142 143
355 353 351 348 344 342 340 337 334 332 331 329 328 327 326 326 327 328 329 330 331 328 328 327 326 324 324 326 327 327 334 305 291 281 237 224 197 199 199 177 166 173 142 231 213 220 228 285 262 212 203 221 188 242 133 182 146 151 107 107 218 184 233 161 173 167 114 232 206 229 228 125 249 46 320 52 340 159 140 128 131 121 115 115 124 136 140 146
353 351 348 346 343 341 340 337 333 331 331 329 327 326 325 325 325 325 328 329 328 328 327 325 324 322 321 324 324 330 337 311 249 270 264 229 219 211 201 180 175 164 168 177 210 189 190 238 265 321 230 239 198 235 180 201 161 193 121 219 239 205 203 168 150 172 169 157 147 168 274 142 253 1 331 47 95 120 132 134 128 129 134 132 131 139 144 146
351 348 346 344 343 341 340 336 334 332 330 327 324 324 323 324 324 325 327 327 327 326 326 325 321 319 321 319 322 327 295 287 335 264 273 357 205 199 163 175 177 187 216 294 192 188 256 293 281 231 257 213 254 210 205 192 150 186 121 195 217 176 120 222 158 169 187 142 154 168 240 272 302 268 56 64 82 116 143 150 148 147 144 139 140 142 146 147
348 347 344 342 341 340 339 336 334 332 329 325 324 323 324 324 324 325 325 325 326 327 326 323 320 317 318 315 319 323 302 47 255 247 257 65 102 150 160 167 178 168 183 211 16 277 249 255 289 282 225 279 274 336 231 209 196 162 210 194 150 142 102 193 180 164 150 145 120 118 132 224 290 323 71 91 91 183 158 150 143 144 143 144 144 148 148 151
347 345 342 341 340 340 337 335 334 331 328 326 325 324 325 324 324 323 324 324 326 325 325 321 316 320 316 314 298 260 15 93 273 278 148 126 115 127 138 151 164 159 164 116 161 289 281 280 192 266 313 170 243 238 254 208 142 222 14 103 140 157 134 179 166 170 110 101 127 114 205 211 5 279 119 132 155 210 175 145 143 141 143 144 145 147 154 161
346 343 341 341 340 338 336 334 333 330 328 327 326 325 325 323 321 322 323 323 322 323 323 320 316 319 324 311 218 212 125 268 281 227 129 130 134 141 141 149 155 131 115 97 229 226 230 282 299 259 281 291 288 259 266 283 254 144 197 165 161 146 152 168 163 153 122 124 162 171 88 149 262 286 246 10 272 183 162 148 140 138 137 142 149 158 159 167
344 342 341 339 337 335 335 334 331 330 329 327 326 325 323 320 321 321 321 320 319 321 322 318 319 319 336 333 133 351 80 251 238 151 148 133 133 143 140 125 144 127 133 175 175 214 299 278 271 274 258 247 251 281 304 308 241 130 135 179 144 110 155 141 130 144 130 114 144 81 128 197 194 229 4 288 39 335 151 143 140 141 142 150 157 163 173 175
344 341 340 337 335 334 334 332 331 330 329 328 325 323 321 320 319 319 319 319 318 317 318 316 318 314 320 288 89 14 246 236 195 164 147 150 152 135 136 136 187 134 168 196 231 245 29 261 255 194 254 306 337 347 332 316 359 313 150 153 154 79 60 51 66 51 68 94 65 70 33 320 354 293 263 198 55 303 162 145 146 147 151 158 166 174 177 180
342 341 338 336 334 333 332 331 330 329 328 326 324 322 319 317 315 316 315 315 315 313 312 314 315 326 327 246 351 55 262 164 123 166 165 159 143 138 195 185 155 164 131 240 236 213 201 239 247 289 269 259 15 335 308 44 333 122 92 69 81 89 80 15 111 75 68 67 12 115 79 312 329 354 246 24 29 11 213 151 152 153 160 165 173 179 180 175
342 339 338 335 334 333 331 330 330 328 327 325 324 320 316 312 310 308 308 309 309 306 305 309 314 311 278 274 73 221 219 121 187 177 173 158 147 153 195 190 180 161 199 259 230 217 253 277 275 278 273 230 348 319 315 61 86 94 102 84 67 57 60 34 58 54 89 15 48 108 173 256 325 24 161 6 4 4 309 158 159 162 164 169 178 175 172 168
341 339 337 336 334 332 331 330 329 327 326 325 320 316 310 307 304 306 305 305 303 299 299 297 308 273 264 74 150 235 203 227 159 192 178 165 172 201 199 177 183 193 169 214 244 239 224 241 283 337 239 5 345 297 289 88 81 129 119 107 100 109 77 330 153 184 134 245 203 129 32 298 233 222 132 48 3 16 299 154 169 169 169 171 171 163 158 141
340 339 337 335 334 333 331 330 328 326 325 321 315 308 306 302 300 299 297 296 290 287 291 295 277 255 328 353 230 240 277 308 200 177 203 196 212 215 200 183 194 203 193 199 245 251 277 290 344 340 282 53 225 93 280 352 138 118 34 129 162 193 30 302 2 98 105 263 174 127 248 243 232 231 256 49 21 352 286 165 176 174 164 166 161 151 136 112
339 338 336 334 333 332 330 329 327 324 318 312 309 305 301 300 295 291 286 277 276 273 269 257 252 277 150 238 278 253 273 237 165 189 201 220 201 263 242 238 197 200 202 214 249 243 273 295 295 250 213 145 288 291 350 312 135 148 146 48 135 83 248 304 161 187 98 211 192 119 206 261 259 272 33 79 17 262 248 181 186 167 161 159 156 128 129 135
339 337 335 334 332 330 328 325 322 318 315 315 309 304 302 296 289 284 277 275 259 245 247 229 217 93 21 278 258 268 236 118 49 255 242 176 218 310 242 246 252 230 214 219 241 250 239 341 5 7 304 289 358 351 307 354 35 136 108 309 315 136 250 301 290 155 157 240 212 106 273 249 258 7 78 115 211 288 315 192 170 176 151 150 136 129 123 127
338 335 334 333 331 329 326 325 321 318 319 318 312 306 297 285 281 272 260 243 246 225 36 227 207 204 29 303 284 334 2 116 241 235 242 190 177 214 222 217 219 245 264 292 239 268 285 55 193 205 276 354 22 291 328 8 341 18 110 190 222 108 188 3 286 211 195 130 198 215 248 359 307 126 148 145 153 299 288 145 170 188 152 141 138 134 134 131
336 334 331 329 329 328 328 326 322 322 321 320 318 304 291 274 256 244 238 205 205 192 196 45 114 196 29 240 324 315 228 239 257 313 246 214 204 181 35 185 257 244 229 266 282 247 313 51 272 358 311 210 183 106 59 358 320 334 70 153 198 153 168 197 300 257 226 147 204 227 204 265 176 164 145 139 181 314 341 91 24 296 156 143 138 138 139 138
335 332 329 326 326 327 326 325 326 325 323 320 316 292 298 284 222 2 179 177 187 207 245 253 238 332 279 315 337 226 201 215 183 212 203 231 197 178 92 109 283 284 13 294 2 187 280 290 83 205 358 305 105 98 118 225 199 188 119 107 162 57 267 192 163 242 73 33 97 41 99 43 135 127 129 164 219 233 356 49 78 44 93 146 140 143 140 139
334 330 328 326 324 324 326 325 327 327 326 321 300 291 285 78 91 200 121 160 113 5 28 329 126 91 226 261 240 292 193 201 167 122 251 188 240 202 272 176 236 48 288 123 292 177 320 298 24 21 256 244 221 182 196 200 169 172 161 159 145 142 216 187 245 338 118 74 41 20 82 99 117 138 158 120 198 262 26 46 49 62 63 26 25 22 101 142
334 331 327 325 323 322 323 324 325 328 337 337 356 360 67 4 13 22 63 24 196 217 243 236 201 271 299 292 262 217 9 67 127 236 170 240 112 174 268 240 305 312 125 187 226 220 126 165 213 226 242 238 226 207 219 215 261 119 119 137 166 149 244 35 308 214 144 83 2 339 33 43 60 91 99 80 359 24 13 83 91 83 86 94 103 137 330 290
329 327 325 324 323 321 319 322 322 326 335 318 305 10 30 318 345 346 323 268 218 226 235 243 203 215 236 267 281 135 139 258 169 233 199 143 109 108 257 121 350 299 244 215 156 267 86 181 250 230 229 230 234 224 229 222 191 168 165 127 173 183 162 206 191 198 335 103 275 17 61 21 11 38 72 33 30 17 53 113 118 120 125 118 139 181 150 317
324 322 325 324 322 320 318 319 322 321 325 270 30 32 241 231 203 215 148 320 315 276 213 247 241 240 250 257 255 179 114 199 277 290 304 138 228 130 291 171 176 217 257 297 33 320 160 209 237 235 233 237 248 244 226 202 180 185 154 136 131 218 111 21 36 26 342 75 192 62 97 347 347 26 34 220 153 147 228 193 172 164 143 156 136 169 130 125
322 322 324 324 323 320 319 316 319 325 266 105 17 302 264 234 324 309 202 245 258 271 283 260 262 231 244 248 271 92 143 172 233 229 210 175 108 197 162 154 259 270 300 133 172 164 255 266 247 243 247 244 259 243 244 216 189 151 125 136 191 181 146 244 284 40 2 96 179 159 108 313 322 351 300 287 223 173 242 237 183 178 163 164 162 163 155 175
323 322 323 324 322 321 318 318 310 43 302 253 270 235 260 293 304 319 51 232 285 304 225 239 227 247 233 196 219 136 146 261 129 206 218 141 169 195 139 190 241 246 247 203 195 172 205 226 230 235 240 231 258 265 213 125 16 184 165 163 132 177 218 147 182 120 344 22 91 97 58 334 254 251 265 260 217 146 235 290 273 257 167 185 145 158 162 192
325 324 323 322 324 321 317 315 8 11 311 237 244 244 282 279 258 248 62 320 329 273 230 287 180 239 212 39 102 150 196 317 212 191 189 148 165 61 233 215 197 256 257 278 219 206 250 263 252 190 210 200 209 25 245 115 22 329 232 160 181 177 111 94 115 125 40 29 275 148 95 249 230 218 218 215 175 215 200 190 216 208 198 194 175 181 178 198
326 324 323 323 323 328 307 335 11 323 341 287 240 320 333 308 287 36 95 67 309 269 2 253 93 255 62 192 65 177 54 299 221 208 182 198 177 161 145 316 164 275 308 287 202 185 206 264 184 220 87 41 26 133 257 112 141 66 278 173 149 128 129 133 149 116 125 171 220 174 129 257 252 214 212 211 222 228 199 199 211 207 208 195 192 193 183 182
325 323 323 324 326 339 1 29 308 298 337 305 335 332 318 322 344 42 59 352 337 248 170 255 66 317 115 203 158 68 37 269 295 316 220 196 179 150 128 261 353 300 256 311 40 309 13 348 14 22 68 69 40 0 289 75 78 288 267 113 127 133 146 169 151 126 187 144 56 61 108 172 300 257 207 195 201 226 227 218 219 219 209 207 195 193 183 179
322 323 322 322 317 348 215 325 340 344 239 264 322 321 316 319 338 51 80 58 335 202 262 231 236 339 21 204 129 149 194 189 47 267 195 218 106 350 126 229 221 258 281 68 12 257 146 306 25 338 57 52 258 248 286 93 117 199 151 141 152 158 169 160 140 139 164 120 124 250 248 8 246 267 205 164 194 223 228 226 222 219 213 211 200 195 188 178
322 321 320 318 314 317 193 176 130 248 240 293 314 308 319 318 52 96 117 96 180 227 12 96 267 7 281 56 199 225 235 175 184 248 284 61 231 143 222 247 197 244 270 184 228 292 285 203 273 134 127 228 243 277 293 339 12 259 173 168 161 159 144 140 147 130 169 65 216 213 196 174 276 280 92 163 202 219 220 218 218 210 210 205 199 197 192 180
320 321 319 316 316 108 111 306 234 239 289 309 303 302 306 27 41 38 26 303 145 252 231 293 130 206 147 150 272 190 199 232 229 46 209 166 256 60 245 185 171 352 323 349 241 236 257 255 227 96 189 199 184 233 201 216 213 240 160 164 131 150 129 117 72 94 67 319 245 202 189 165 277 227 185 156 212 210 211 211 211 206 208 203 195 182 190 182
318 320 316 312 210 260 170 291 249 235 251 292 303 306 58 37 104 100 80 229 258 250 75 54 241 46 142 153 248 251 192 197 239 160 241 281 24 12 350 8 20 28 10 349 317 292 293 318 320 242 172 142 137 320 319 27 20 62 33 100 106 18 62 92 19 35 209 265 270 183 183 189 173 289 228 226 237 215 197 198 198 197 200 200 193 181 191 175
318 317 310 217 231 318 170 223 242 17 332 325 340 23 64 43 11 116 215 308 334 246 177 219 248 185 197 185 190 225 191 252 207 161 186 197 168 150 225 189 145 4 328 270 271 335 320 247 215 247 200 128 64 34 316 7 358 45 52 32 72 258 54 241 313 233 214 208 267 108 121 36 273 235 217 223 231 223 205 206 197 192 193 195 194 180 188 172
318 315 310 223 191 226 242 257 325 326 331 330 38 55 66 94 269 246 297 304 249 172 243 156 215 189 200 171 213 231 197 187 228 212 157 227 118 247 223 184 187 152 237 246 224 12 295 317 100 284 44 109 106 112 315 8 345 23 37 127 77 46 43 244 271 212 313 290 280 131 168 217 245 291 231 222 226 221 202 201 196 191 191 188 193 175 181 174
316 317 318 182 191 213 237 240 240 310 332 14 73 30 54 74 245 251 259 238 240 292 236 193 215 209 181 180 241 171 177 257 162 216 147 154 170 268 300 262 202 107 146 272 58 359 39 348 13 59 309 275 121 156 178 176 221 230 170 171 205 143 155 225 203 217 224 221 323 14 106 233 146 239 302 314 271 228 197 202 195 192 191 190 192 171 173 169
312 300 246 186 231 239 232 232 266 349 349 63 52 82 137 236 244 231 267 307 308 301 355 308 177 227 313 290 260 168 154 245 187 159 176 97 285 180 291 307 190 179 183 70 285 86 59 197 282 286 219 141 178 231 140 105 39 278 131 84 88 232 145 185 203 155 192 134 72 227 209 198 172 226 342 40 51 43 30 193 178 187 182 189 194 175 173 172
315 324 159 228 201 245 172 195 172 220 126 59 78 80 197 200 232 221 229 244 295 336 325 359 23 36 287 276 267 160 7 125 275 90 318 139 209 127 280 30 352 126 123 131 215 360 28 338 291 331 14 108 237 232 229 118 103 274 25 282 213 183 138 190 297 274 116 53 252 189 299 323 306 355 355 24 58 30 25 28 185 185 179 177 198 190 173 174
343 326 7 238 226 165 143 150 149 143 77 93 92 236 215 268 222 258 308 330 305 298 4 39 307 70 349 312 319 334 191 61 322 94 294 41 342 336 56 339 168 344 170 132 344 157 131 259 317 41 21 324 330 29 59 40 57 68 323 251 268 148 128 133 203 315 99 163 253 143 198 253 75 243 323 17 44 17 31 6 223 184 167 180 199 195 175 175
318 307 256 253 228 137 136 149 135 101 79 78 163 234 259 275 302 284 272 294 309 308 318 124 270 80 322 358 359 345 258 110 263 77 202 336 183 241 140 256 355 102 277 305 120 288 101 12 298 35 18 347 1 32 11 16 62 93 210 293 33 328 336 316 94 297 341 294 279 327 282 228 184 256 359 353 11 20 5 12 44 152 173 188 190 191 132 130
256 333 342 267 149 136 140 149 104 92 61 57 253 335 255 231 269 268 271 285 282 279 280 251 158 304 84 343 231 285 148 180 178 148 97 256 99 275 357 109 2 355 31 74 60 320 50 122 303 339 23 300 38 44 14 307 339 53 49 26 299 159 233 12 200 178 136 254 16 290 34 221 254 309 340 351 353 359 352 354 352 297 245 186 179 177 141 124
353 8 288 280 136 130 133 131 77 47 78 165 225 229 272 305 280 282 298 302 290 233 223 216 52 316 343 265 15 259 304 298 147 197 103 260 142 347 76 67 42 40 52 74 108 124 52 97 293 287 315 26 15 20 123 335 9 360 37 10 7 341 251 190 344 49 124 216 200 159 276 298 293 289 27 4 356 350 5 340 322 310 300 288 248 193 152 137
289 180 275 310 133 125 120 99 58 113 169 263 203 246 289 271 304 292 295 288 263 218 161 187 174 165 219 329 318 294 262 286 53 99 141 252 127 2 285 185 135 91 65 39 55 4 73 19 9 307 13 16 235 234 174 202 136 123 120 91 238 11 22 36 296 327 48 46 301 306 245 271 268 340 61 26 330 1 357 6 334 306 298 310 320 322 223 152
3 12 257 356 358 132 108 89 247 194 147 188 234 200 264 259 267 274 294 293 299 298 256 161 202 197 212 221 209 323 17 22 14 87 276 161 198 136 220 176 133 135 102 119 128 234 146 150 97 23 216 275 249 344 134 95 106 96 82 27 277 127 105 96 54 298 10 296 304 230 102 300 259 334 79 148 350 23 13 18 11 349 340 326 311 317 324 207
21 245 265 292 280 244 63 288 290 313 238 234 243 261 245 258 254 279 288 283 278 256 24 250 205 148 266 171 277 121 345 58 355 124 201 170 108 233 189 158 123 88 94 354 27 307 61 66 31 307 315 297 314 328 63 81 107 46 21 9 16 32 176 167 177 207 115 331 32 354 34 261 286 275 326 90 78 83 50 58 29 355 339 328 315 326 325 331
294 286 313 292 256 152 134 229 281 282 278 288 256 262 254 260 272 281 278 284 272 305 278 287 321 202 214 233 153 247 256 58 260 112 40 165 166 208 133 132 108 135 112 216 128 244 77 300 115 16 356 335 338 354 360 345 68 87 319 291 320 330 300 249 78 31 81 331 161 121 252 290 281 338 357 30 48 43 32 26 28 4 336 335 341 349 349 341
283 255 235 291 321 150 210 197 187 264 278 292 301 303 313 295 231 262 276 286 269 217 238 289 212 206 317 238 202 191 189 147 241 297 185 180 211 46 265 124 106 95 116 173 132 130 100 174 98 98 57 5 341 332 300 315 314 298 244 329 328 54 322 28 263 3 81 278 89 110 231 258 274 319 319 16 31 33 28 24 13 5 344 344 348 19 14 17
355 357 297 315 351 212 264 313 275 249 304 314 315 281 257 279 295 276 286 285 264 237 205 192 315 35 180 336 16 359 343 6 82 298 19 355 342 50 46 64 96 133 150 156 130 83 108 85 94 148 148 182 208 216 248 142 10 12 311 338 321 326 354 41 87 79 164 216 121 210 175 266 305 295 323 15 32 32 17 19 13 355 353 359 5 20 23 33
322 163 318 328 326 22 1 352 7 11 322 321 304 292 290 259 270 290 260 296 288 196 191 176 138 24 327 10 9 336 302 52 331 88 75 84 310 8 125 133 149 155 159 135 130 78 71 54 84 138 174 199 193 206 211 170 200 241 315 297 299 298 298 39 41 227 193 83 311 249 195 179 254 296 345 34 32 34 32 21 10 15 8 1 5 20 19 35
28 266 25 34 281 283 8 339 348 322 309 316 270 278 273 278 283 284 305 274 290 23 91 332 48 316 222 208 176 226 324 3 10 165 342 9 56 326 38 140 142 174 125 157 162 119 140 137 225 134 255 226 199 209 204 187 198 214 234 267 279 266 319 342 250 229 157 146 193 234 198 202 261 45 25 39 15 23 33 21 25 28 20 25 32 36 39 18
224 310 315 13 357 316 263 271 296 293 299 304 277 268 281 274 263 251 252 310 313 297 162 165 250 255 272 235 160 192 166 10 318 319 106 243 116 325 27 342 357 125 127 104 36 85 87 34 202 177 213 285 226 223 215 196 245 273 260 252 257 276 269 234 253 284 125 154 228 207 194 224 273 10 49 32 31 48 47 39 33 33 42 44 47 48 46 59
13 12 320 342 276 282 278 299 307 323 308 307 290 276 273 295 307 308 296 225 313 304 299 228 232 249 235 241 106 176 205 201 186 121 242 103 355 50 138 167 236 317 91 100 113 331 98 245 190 160 81 297 263 222 181 198 202 268 279 264 248 232 266 306 260 340 85 45 40 102 136 226 309 77 76 47 52 51 47 36 27 9 1 41 56 54 56 57
319 298 320 317 325 277 276 323 330 325 311 298 247 288 303 314 320 331 300 237 220 224 220 238 223 250 314 285 229 255 177 153 159 161 142 107 124 185 109 292 123 28 347 62 64 274 91 214 47 86 85 302 274 200 220 217 214 239 288 321 304 282 113 29 20 285 101 295 312 115 209 255 283 337 102 56 56 56 62 51 39 3 348 4 63 69 55 50
293 283 300 222 252 284 319 313 303 348 297 234 287 320 325 322 341 350 335 299 275 177 201 326 292 244 329 241 244 233 168 159 155 179 142 140 154 175 149 188 153 148 224 114 217 126 138 132 140 103 90 258 256 203 216 184 53 334 278 241 272 98 146 160 209 360 147 117 82 169 237 222 241 308 89 45 66 71 68 54 352 14 331 21 52 63 72 82